Time,TemperatureF,DewpointF,PressureIn,WindDirection,WindDirectionDegrees,WindSpeedMPH,WindSpeedGustMPH,Humidity,HourlyPrecipIn,Conditions,Clouds,dailyrainin,SoftwareType,DateUTC
2013-06-02 00:10:00,87.1,22.0,29.61,NNE,18,4.0,5.0,9,0.00,,,0.00,weatherlink.com 1.10,2013-06-02 07:10:00,
2013-06-02 00:25:00,87.0,22.0,29.61,NNE,27,4.0,6.0,9,0.00,,,0.00,weatherlink.com 1.10,2013-06-02 07:25:00,
2013-06-02 00:40:00,86.7,19.0,29.61,NNE,23,3.0,4.0,8,0.00,,,0.00,weatherlink.com 1.10,2013-06-02 07:40:00,
2013-06-02 00:55:00,85.3,20.0,29.61,NNE,29,3.0,6.0,9,0.00,,,0.00,weatherlink.com 1.10,2013-06-02 07:55:00,
2013-06-02 01:10:00,84.8,20.0,29.61,NE,43,2.0,5.0,9,0.00,,,0.00,weatherlink.com 1.10,2013-06-02 08:10:00,
2013-06-02 01:25:00,84.1,19.0,29.61,NNE,27,4.0,4.0,9,0.00,,,0.00,weatherlink.com 1.10,2013-06-02 08:25:00,
2013-06-02 01:40:00,83.6,19.0,29.61,NE,38,3.0,5.0,9,0.00,,,0.00,weatherlink.com 1.10,2013-06-02 08:40:00,
2013-06-02 01:55:00,83.5,19.0,29.61,NE,37,4.0,5.0,9,0.00,,,0.00,weatherlink.com 1.10,2013-06-02 08:55:00,
2013-06-02 02:10:00,83.9,19.0,29.61,NNE,29,2.0,3.0,9,0.00,,,0.00,weatherlink.com 1.10,2013-06-02 09:10:00,
2013-06-02 02:25:00,83.5,21.0,29.60,NE,45,2.0,5.0,10,0.00,,,0.00,weatherlink.com 1.10,2013-06-02 09:25:00,
2013-06-02 02:40:00,82.8,21.0,29.60,NE,40,1.0,2.0,10,0.00,,,0.00,weatherlink.com 1.10,2013-06-02 09:40:00,
2013-06-02 02:55:00,83.4,19.0,29.60,NNE,30,3.0,3.0,9,0.00,,,0.00,weatherlink.com 1.10,2013-06-02 09:55:00,
2013-06-02 03:10:00,82.1,23.0,29.60,NNE,33,1.0,2.0,11,0.00,,,0.00,weatherlink.com 1.10,2013-06-02 10:10:00,
2013-06-02 03:25:00,80.8,21.0,29.61,North,358,0.0,1.0,11,0.00,,,0.00,weatherlink.com 1.10,2013-06-02 10:25:00,
2013-06-02 03:40:00,80.9,22.0,29.60,NNE,31,2.0,4.0,11,0.00,,,0.00,weatherlink.com 1.10,2013-06-02 10:40:00,
2013-06-02 03:55:00,80.6,21.0,29.60,NNE,22,0.0,3.0,11,0.00,,,0.00,weatherlink.com 1.10,2013-06-02 10:55:00,
2013-06-02 04:10:00,80.6,23.0,29.60,North,9,1.0,4.0,12,0.00,,,0.00,weatherlink.com 1.10,2013-06-02 11:10:00,
2013-06-02 04:26:00,79.8,23.0,29.60,NNE,32,0.0,1.0,12,0.00,,,0.00,weatherlink.com 1.10,2013-06-02 11:26:00,
2013-06-02 04:41:00,79.4,24.0,29.61,NNE,32,2.0,2.0,13,0.00,,,0.00,weatherlink.com 1.10,2013-06-02 11:41:00,
2013-06-02 04:56:00,78.7,24.0,29.61,NNE,23,2.0,3.0,13,0.00,,,0.00,weatherlink.com 1.10,2013-06-02 11:56:00,
2013-06-02 05:11:00,78.0,25.0,29.61,NNE,31,4.0,4.0,14,0.00,,,0.00,weatherlink.com 1.10,2013-06-02 12:11:00,
2013-06-02 05:26:00,77.2,24.0,29.61,NNE,23,3.0,5.0,14,0.00,,,0.00,weatherlink.com 1.10,2013-06-02 12:26:00,
2013-06-02 05:41:00,77.1,24.0,29.62,West,259,0.0,3.0,14,0.00,,,0.00,weatherlink.com 1.10,2013-06-02 12:41:00,
2013-06-02 05:56:00,76.9,27.0,29.62,North,356,1.0,1.0,16,0.00,,,0.00,weatherlink.com 1.10,2013-06-02 12:56:00,
2013-06-02 06:11:00,77.3,28.0,29.62,NNE,12,0.0,1.0,16,0.00,,,0.00,weatherlink.com 1.10,2013-06-02 13:11:00,
2013-06-02 06:26:00,79.4,28.0,29.62,NNE,26,0.0,1.0,15,0.00,,,0.00,weatherlink.com 1.10,2013-06-02 13:26:00,
2013-06-02 06:41:00,80.8,27.0,29.63,NW,318,1.0,1.0,14,0.00,,,0.00,weatherlink.com 1.10,2013-06-02 13:41:00,
2013-06-02 06:56:00,81.7,26.0,29.63,NW,313,1.0,2.0,13,0.00,,,0.00,weatherlink.com 1.10,2013-06-02 13:56:00,
2013-06-02 07:11:00,82.5,25.0,29.63,WNW,293,0.0,2.0,12,0.00,,,0.00,weatherlink.com 1.10,2013-06-02 14:11:00,
2013-06-02 07:26:00,82.1,23.0,29.64,WNW,283,1.0,3.0,11,0.00,,,0.00,weatherlink.com 1.10,2013-06-02 14:26:00,
2013-06-02 07:41:00,82.5,23.0,29.64,NW,314,1.0,3.0,11,0.00,,,0.00,weatherlink.com 1.10,2013-06-02 14:41:00,
2013-06-02 07:56:00,83.3,23.0,29.64,West,259,3.0,4.0,11,0.00,,,0.00,weatherlink.com 1.10,2013-06-02 14:56:00,
2013-06-02 08:11:00,84.9,25.0,29.64,WNW,283,0.0,3.0,11,0.00,,,0.00,weatherlink.com 1.10,2013-06-02 15:11:00,
2013-06-02 08:26:00,87.6,27.0,29.64,WNW,282,1.0,1.0,11,0.00,,,0.00,weatherlink.com 1.10,2013-06-02 15:26:00,
2013-06-02 08:41:00,89.1,28.0,29.64,WSW,252,1.0,3.0,11,0.00,,,0.00,weatherlink.com 1.10,2013-06-02 15:41:00,
2013-06-02 08:56:00,91.8,30.0,29.64,East,91,0.0,2.0,11,0.00,,,0.00,weatherlink.com 1.10,2013-06-02 15:56:00,
2013-06-02 09:11:00,94.2,32.0,29.64,SW,214,2.0,3.0,11,0.00,,,0.00,weatherlink.com 1.10,2013-06-02 16:11:00,
2013-06-02 09:26:00,95.9,33.0,29.64,SSE,160,1.0,4.0,11,0.00,,,0.00,weatherlink.com 1.10,2013-06-02 16:26:00,
2013-06-02 09:41:00,97.8,39.0,29.63,SE,138,4.0,12.0,13,0.00,,,0.00,weatherlink.com 1.10,2013-06-02 16:41:00,
2013-06-02 09:56:00,98.4,40.0,29.63,ESE,110,5.0,12.0,13,0.00,,,0.00,weatherlink.com 1.10,2013-06-02 16:56:00,
2013-06-02 10:11:00,99.1,38.0,29.63,ESE,115,8.0,9.0,12,0.00,,,0.00,weatherlink.com 1.10,2013-06-02 17:11:00,
2013-06-02 10:26:00,99.1,38.0,29.63,SE,124,3.0,11.0,12,0.00,,,0.00,weatherlink.com 1.10,2013-06-02 17:26:00,
2013-06-02 10:41:00,100.9,37.0,29.63,SE,140,7.0,10.0,11,0.00,,,0.00,weatherlink.com 1.10,2013-06-02 17:41:00,
2013-06-02 10:56:00,102.3,36.0,29.63,SSE,150,3.0,10.0,10,0.00,,,0.00,weatherlink.com 1.10,2013-06-02 17:56:00,
2013-06-02 11:12:00,101.9,38.0,29.62,ESE,106,5.0,12.0,11,0.00,,,0.00,weatherlink.com 1.10,2013-06-02 18:12:00,
2013-06-02 11:27:00,103.3,34.0,29.62,NE,50,2.0,9.0,9,0.00,,,0.00,weatherlink.com 1.10,2013-06-02 18:27:00,
2013-06-02 11:42:00,102.5,34.0,29.61,East,95,4.0,12.0,9,0.00,,,0.00,weatherlink.com 1.10,2013-06-02 18:42:00,
2013-06-02 11:57:00,103.1,34.0,29.61,SE,133,4.0,11.0,9,0.00,,,0.00,weatherlink.com 1.10,2013-06-02 18:57:00,
2013-06-02 12:12:00,104.7,32.0,29.60,SE,139,3.0,18.0,8,0.00,,,0.00,weatherlink.com 1.10,2013-06-02 19:12:00,
2013-06-02 12:27:00,105.5,30.0,29.59,ESE,107,4.0,13.0,7,0.00,,,0.00,weatherlink.com 1.10,2013-06-02 19:27:00,
2013-06-02 12:42:00,104.9,29.0,29.59,SE,143,11.0,17.0,7,0.00,,,0.00,weatherlink.com 1.10,2013-06-02 19:42:00,
2013-06-02 12:57:00,105.2,29.0,29.58,SE,127,12.0,18.0,7,0.00,,,0.00,weatherlink.com 1.10,2013-06-02 19:57:00,
2013-06-02 13:12:00,107.1,31.0,29.58,SE,139,10.0,18.0,7,0.00,,,0.00,weatherlink.com 1.10,2013-06-02 20:12:00,
2013-06-02 13:27:00,106.0,33.0,29.57,SSE,160,7.0,17.0,8,0.00,,,0.00,weatherlink.com 1.10,2013-06-02 20:27:00,
2013-06-02 13:42:00,106.8,34.0,29.57,SE,136,10.0,14.0,8,0.00,,,0.00,weatherlink.com 1.10,2013-06-02 20:42:00,
2013-06-02 13:57:00,106.7,34.0,29.56,SE,127,6.0,16.0,8,0.00,,,0.00,weatherlink.com 1.10,2013-06-02 20:57:00,
2013-06-02 14:12:00,106.5,34.0,29.56,SE,125,8.0,19.0,8,0.00,,,0.00,weatherlink.com 1.10,2013-06-02 21:12:00,
2013-06-02 14:27:00,106.9,34.0,29.55,ESE,105,10.0,19.0,8,0.00,,,0.00,weatherlink.com 1.10,2013-06-02 21:27:00,
2013-06-02 14:42:00,107.0,31.0,29.55,South,172,9.0,13.0,7,0.00,,,0.00,weatherlink.com 1.10,2013-06-02 21:42:00,
2013-06-02 14:57:00,107.5,31.0,29.54,SSE,167,11.0,16.0,7,0.00,,,0.00,weatherlink.com 1.10,2013-06-02 21:57:00,
2013-06-02 15:12:00,107.4,31.0,29.54,SSW,192,8.0,15.0,7,0.00,,,0.00,weatherlink.com 1.10,2013-06-02 22:12:00,
2013-06-02 15:27:00,107.7,31.0,29.53,South,186,7.0,12.0,7,0.00,,,0.00,weatherlink.com 1.10,2013-06-02 22:27:00,
2013-06-02 15:42:00,107.9,31.0,29.52,WSW,241,5.0,13.0,7,0.00,,,0.00,weatherlink.com 1.10,2013-06-02 22:42:00,
2013-06-02 15:57:00,107.8,31.0,29.52,SE,129,5.0,15.0,7,0.00,,,0.00,weatherlink.com 1.10,2013-06-02 22:57:00,
2013-06-02 16:12:00,108.0,28.0,29.51,SW,214,8.0,14.0,6,0.00,,,0.00,weatherlink.com 1.10,2013-06-02 23:12:00,
2013-06-02 16:27:00,107.9,28.0,29.51,SSE,159,9.0,18.0,6,0.00,,,0.00,weatherlink.com 1.10,2013-06-02 23:27:00,
2013-06-02 16:42:00,108.0,18.0,29.50,SSE,152,13.0,22.0,4,0.00,,,0.00,weatherlink.com 1.10,2013-06-02 23:42:00,
2013-06-02 16:57:00,107.9,28.0,29.50,SSE,167,7.0,16.0,6,0.00,,,0.00,weatherlink.com 1.10,2013-06-02 23:57:00,
2013-06-02 17:12:00,107.6,23.0,29.50,South,169,14.0,18.0,5,0.00,,,0.00,weatherlink.com 1.10,2013-06-03 00:12:00,
2013-06-02 17:27:00,107.0,31.0,29.50,SSW,197,5.0,14.0,7,0.00,,,0.00,weatherlink.com 1.10,2013-06-03 00:27:00,
2013-06-02 17:42:00,106.7,34.0,29.49,SSW,210,3.0,15.0,8,0.00,,,0.00,weatherlink.com 1.10,2013-06-03 00:42:00,
2013-06-02 17:57:00,106.7,34.0,29.49,SSW,209,7.0,16.0,8,0.00,,,0.00,weatherlink.com 1.10,2013-06-03 00:57:00,
2013-06-02 18:12:00,106.1,33.0,29.49,SE,133,7.0,19.0,8,0.00,,,0.00,weatherlink.com 1.10,2013-06-03 01:12:00,
2013-06-02 18:27:00,105.8,36.0,29.49,SSE,165,6.0,15.0,9,0.00,,,0.00,weatherlink.com 1.10,2013-06-03 01:27:00,
2013-06-02 18:42:00,105.3,36.0,29.50,SW,214,7.0,14.0,9,0.00,,,0.00,weatherlink.com 1.10,2013-06-03 01:42:00,
2013-06-02 18:57:00,104.9,35.0,29.50,SSE,153,10.0,15.0,9,0.00,,,0.00,weatherlink.com 1.10,2013-06-03 01:57:00,
2013-06-02 19:13:00,104.0,35.0,29.50,SSE,158,7.0,12.0,9,0.00,,,0.00,weatherlink.com 1.10,2013-06-03 02:13:00,
2013-06-02 19:28:00,103.1,37.0,29.50,SE,137,13.0,15.0,10,0.00,,,0.00,weatherlink.com 1.10,2013-06-03 02:28:00,
2013-06-02 19:43:00,102.1,38.0,29.50,SSE,155,5.0,10.0,11,0.00,,,0.00,weatherlink.com 1.10,2013-06-03 02:43:00,
2013-06-02 19:58:00,101.4,38.0,29.51,SSE,163,5.0,11.0,11,0.00,,,0.00,weatherlink.com 1.10,2013-06-03 02:58:00,
2013-06-02 20:13:00,101.0,37.0,29.51,South,191,10.0,13.0,11,0.00,,,0.00,weatherlink.com 1.10,2013-06-03 03:13:00,
2013-06-02 20:28:00,100.6,37.0,29.51,South,169,6.0,13.0,11,0.00,,,0.00,weatherlink.com 1.10,2013-06-03 03:28:00,
2013-06-02 20:43:00,100.0,39.0,29.52,SSE,162,4.0,12.0,12,0.00,,,0.00,weatherlink.com 1.10,2013-06-03 03:43:00,
2013-06-02 20:58:00,99.8,39.0,29.52,SSE,150,3.0,12.0,12,0.00,,,0.00,weatherlink.com 1.10,2013-06-03 03:58:00,
2013-06-02 21:13:00,99.3,38.0,29.52,SSE,155,8.0,13.0,12,0.00,,,0.00,weatherlink.com 1.10,2013-06-03 04:13:00,
2013-06-02 21:28:00,99.1,38.0,29.53,South,169,5.0,11.0,12,0.00,,,0.00,weatherlink.com 1.10,2013-06-03 04:28:00,
2013-06-02 21:43:00,98.8,38.0,29.53,South,169,4.0,10.0,12,0.00,,,0.00,weatherlink.com 1.10,2013-06-03 04:43:00,
2013-06-02 21:58:00,98.4,38.0,29.54,SE,146,11.0,11.0,12,0.00,,,0.00,weatherlink.com 1.10,2013-06-03 04:58:00,
2013-06-02 22:13:00,98.1,35.0,29.54,SE,131,7.0,13.0,11,0.00,,,0.00,weatherlink.com 1.10,2013-06-03 05:13:00,
2013-06-02 22:28:00,97.9,35.0,29.54,SSE,159,6.0,15.0,11,0.00,,,0.00,weatherlink.com 1.10,2013-06-03 05:28:00,
2013-06-02 22:43:00,97.2,34.0,29.54,SE,139,7.0,13.0,11,0.00,,,0.00,weatherlink.com 1.10,2013-06-03 05:43:00,
2013-06-02 22:58:00,96.7,32.0,29.54,SE,144,9.0,10.0,10,0.00,,,0.00,weatherlink.com 1.10,2013-06-03 05:58:00,
2013-06-02 23:13:00,96.2,34.0,29.54,SSE,162,10.0,13.0,11,0.00,,,0.00,weatherlink.com 1.10,2013-06-03 06:13:00,
2013-06-02 23:28:00,95.6,33.0,29.55,SSE,165,6.0,10.0,11,0.00,,,0.00,weatherlink.com 1.10,2013-06-03 06:28:00,
2013-06-02 23:43:00,94.9,33.0,29.55,SE,139,3.0,5.0,11,0.00,,,0.00,weatherlink.com 1.10,2013-06-03 06:43:00,
2013-06-02 23:58:00,94.5,32.0,29.55,ESE,114,1.0,9.0,11,0.00,,,0.00,weatherlink.com 1.10,2013-06-03 06:58:00,